Starlink 1858

decayed
NORAD ID: 47145 Int'l Des: 2020-088 Owner: SPXS Country: US Constellation: starlink
LEOCIRCULAR
Gruppe

Über Starlink 1858

Beschreibung wird geladen...

Höhenverlauf

Altitude vs Time

uPlot chart will show altitude changes over time

Zweizeiliger Elementsatz

1 47145U 20088Z 22220.81878771 .28103611 12238-4 41390-2 0 9995
2 47145 53.0291 318.6359 0008508 290.2018 70.2201 16.33631260 96199
Epoch: 8. Aug. 2022 • Age: 32025 hours

Aktueller Status

Position data unavailable
Startdatum 25. Nov. 2020
Alter 5.3 years
Verglühungsdatum 8. Aug. 2022
Typ internet

Technische Details

Klassifizierung Payload
Masse 260.00 kg
Trockenmasse 248.00 kg
Gesamtmasse 260.00 kg
Länge 0.20 m
Durchmesser 2.80 m
Spannweite 9.00 m
Form Box + pan
Hersteller SPXS
Bus-Typ Starlink
Phasenstatus Reentered
Besitzer/Staat SPXS/US

Große Konstellationen

Loading constellations...